QPF
0.02 0.02 0.04 0.03 0.02 0.02 0.01 0.01 0.01 0.02 0.02 0.01 0.01 0.00 0.01 0.01 0.01 0.01 0.01 0.01 0.01 0.01 0.02 0.02 0.02 0.01 0.01 0.00 0.00 0.00 0.01 0.01 0.02 0.02 0.03 0.02 0.02 0.01 0.01 0.01 0.01 0.01 0.02
0.01 0.02 0.02 0.04 0.03 0.02 0.02 0.01 0.01 0.01 0.01 0.01 0.01 0.01 0.00 0.00 0.01 0.01 0.01 0.02 0.02 0.02 0.01 0.01 0.01 0.01 0.01 0.01 0.01 0.00 0.00 0.01 0.01 0.01 0.02 0.02 0.02 0.01 0.01 0.01 0.02 0.02 0.02
0.02 0.02 0.02 0.02 0.03 0.03 0.02 0.01 0.01 0.01 0.01 0.01 0.01 0.01 0.00 0.00 0.01 0.01 0.01 0.01 0.02 0.03 0.03 0.02 0.02 0.01 0.01 0.01 0.01 0.01 0.01 0.01 0.01 0.01 0.01 0.01 0.01 0.02 0.02 0.02 0.03 0.03 0.03
0.01 0.01 0.02 0.01 0.01 0.01 0.01 0.01 0.01 0.01 0.01 0.01 0.01 0.01 0.00 0.00 0.01 0.01 0.01 0.01 0.01 0.02 0.03 0.03 0.02 0.02 0.01 0.01 0.01 0.01 0.01 0.01 0.01 0.01 0.01 0.01 0.01 0.01 0.02 0.03 0.03 0.04 0.03
0.01 0.01 0.01 0.01 0.01 0.01 0.01 0.01 0.01 0.01 0.01 0.01 0.01 0.00 0.00 0.00 0.01 0.01 0.01 0.01 0.01 0.02 0.03 0.03 0.02 0.02 0.02 0.02 0.02 0.01 0.01 0.01 0.01 0.02 0.01 0.02 0.01 0.01 0.02 0.02 0.03 0.03 0.02
0.01 0.01 0.01 0.01 0.01 0.00 0.00 0.00 0.00 0.01 0.01 0.01 0.01 0.01 0.01 0.00 0.01 0.01 0.01 0.01 0.01 0.02 0.02 0.03 0.02 0.02 0.02 0.02 0.02 0.01 0.01 0.02 0.02 0.02 0.01 0.01 0.01 0.01 0.01 0.02 0.02 0.02 0.02
0.01 0.01 0.01 0.01 0.01 0.00 0.00 0.00 0.00 0.00 0.01 0.01 0.01 0.01 0.01 0.01 0.01 0.01 0.02 0.01 0.01 0.01 0.02 0.03 0.03 0.02 0.02 0.02 0.01 0.01 0.01 0.02 0.02 0.02 0.02 0.01 0.01 0.01 0.02 0.02 0.02 0.02 0.02
0.01 0.01 0.01 0.01 0.01 0.01 0.01 0.01 0.01 0.01 0.01 0.01 0.01 0.01 0.01 0.01 0.02 0.02 0.02 0.02 0.01 0.01 0.01 0.02 0.03 0.02 0.02 0.02 0.01 0.01 0.01 0.01 0.01 0.01 0.01 0.01 0.01 0.01 0.02 0.02 0.02 0.01 0.01
0.02 0.01 0.01 0.01 0.01 0.01 0.01 0.01 0.01 0.01 0.02 0.02 0.01 0.01 0.01 0.01 0.02 0.02 0.02 0.02 0.02 0.01 0.01 0.01 0.02 0.02 0.03 0.02 0.01 0.01 0.01 0.01 0.01 0.01 0.01 0.01 0.01 0.01 0.01 0.01 0.01 0.01 0.01
0.02 0.02 0.01 0.01 0.01 0.01 0.01 0.01 0.01 0.01 0.02 0.03 0.02 0.01 0.01 0.01 0.01 0.02 0.02 0.02 0.02 0.01 0.01 0.01 0.02 0.02 0.03 0.03 0.02 0.01 0.01 0.01 0.01 0.01 0.01 0.01 0.01 0.00 0.01 0.00 0.01 0.01 0.01
0.02 0.02 0.02 0.01 0.01 0.01 0.01 0.01 0.01 0.01 0.01 0.02 0.02 0.01 0.01 0.01 0.01 0.02 0.02 0.01 0.01 0.01 0.01 0.01 0.01 0.01 0.02 0.02 0.02 0.02 0.02 0.02 0.01 0.01 0.01 0.01 0.01 0.00 0.00 0.00 0.00 0.01 0.02
0.03 0.03 0.02 0.02 0.01 0.01 0.01 0.01 0.01 0.01 0.01 0.01 0.02 0.01 0.01 0.01 0.01 0.01 0.02 0.02 0.02 0.01 0.01 0.01 0.01 0.01 0.01 0.01 0.02 0.02 0.02 0.02 0.02 0.01 0.01 0.01 0.01 0.01 0.01 0.01 0.01 0.01 0.01
0.02 0.02 0.03 0.03 0.02 0.01 0.01 0.01 0.01 0.02 0.02 0.01 0.01 0.01 0.01 0.01 0.01 0.01 0.01 0.01 0.02 0.02 0.01 0.01 0.01 0.01 0.01 0.01 0.01 0.02 0.02 0.02 0.03 0.02 0.02 0.01 0.01 0.01 0.02 0.01 0.01 0.01 0.01
0.01 0.01 0.02 0.03 0.02 0.02 0.01 0.02 0.02 0.02 0.02 0.02 0.02 0.01 0.01 0.01 0.01 0.01 0.01 0.01 0.01 0.02 0.02 0.02 0.02 0.02 0.01 0.01 0.01 0.02 0.02 0.02 0.02 0.02 0.02 0.02 0.02 0.02 0.02 0.02 0.01 0.01 0.01
0.01 0.01 0.02 0.02 0.02 0.02 0.01 0.02 0.02 0.03 0.03 0.03 0.03 0.02 0.01 0.01 0.01 0.01 0.01 0.01 0.01 0.02 0.02 0.02 0.02 0.01 0.01 0.01 0.01 0.01 0.02 0.02 0.02 0.02 0.02 0.02 0.02 0.02 0.01 0.02 0.02 0.01 0.01
0.01 0.01 0.02 0.02 0.02 0.02 0.02 0.01 0.02 0.02 0.02 0.03 0.03 0.03 0.02 0.02 0.01 0.02 0.02 0.01 0.01 0.02 0.02 0.02 0.02 0.01 0.01 0.01 0.01 0.01 0.02 0.02 0.02 0.02 0.02 0.02 0.02 0.02 0.01 0.01 0.01 0.01 0.01
0.02 0.01 0.02 0.02 0.02 0.02 0.02 0.01 0.01 0.01 0.01 0.02 0.02 0.02 0.02 0.02 0.02 0.01 0.02 0.02 0.01 0.02 0.02 0.02 0.02 0.01 0.01 0.01 0.01 0.01 0.01 0.01 0.02 0.02 0.02 0.02 0.02 0.02 0.02 0.01 0.01 0.01 0.01
0.01 0.01 0.01 0.01 0.01 0.02 0.02 0.02 0.02 0.01 0.01 0.01 0.01 0.02 0.02 0.02 0.02 0.02 0.02 0.02 0.01 0.01 0.01 0.01 0.01 0.01 0.01 0.01 0.01 0.01 0.01 0.01 0.01 0.02 0.02 0.02 0.02 0.02 0.02 0.01 0.01 0.01 0.01
0.01 0.01 0.01 0.01 0.01 0.01 0.01 0.02 0.02 0.02 0.02 0.02 0.01 0.02 0.02 0.02 0.02 0.02 0.02 0.01 0.01 0.01 0.01 0.00 0.01 0.01 0.01 0.01 0.01 0.01 0.02 0.02 0.01 0.01 0.01 0.02 0.02 0.02 0.02 0.02 0.01 0.01 0.01
0.01 0.01 0.01 0.01 0.01 0.01 0.01 0.01 0.01 0.02 0.02 0.02 0.02 0.02 0.02 0.03 0.02 0.02 0.02 0.02 0.01 0.01 0.01 0.01 0.01 0.01 0.01 0.01 0.01 0.01 0.01 0.02 0.01 0.01 0.02 0.02 0.02 0.02 0.03 0.02 0.02 0.01 0.01
0.01 0.01 0.01 0.01 0.01 0.01 0.01 0.01 0.01 0.01 0.01 0.01 0.02 0.02 0.02 0.03 0.03 0.02 0.02 0.02 0.02 0.02 0.02 0.02 0.01 0.01 0.01 0.01 0.01 0.01 0.01 0.01 0.01 0.02 0.02 0.02 0.02 0.02 0.02 0.02 0.02 0.02 0.01
0.01 0.01 0.01 0.01 0.01 0.01 0.01 0.01 0.01 0.01 0.01 0.01 0.01 0.01 0.02 0.03 0.03 0.03 0.02 0.02 0.02 0.02 0.02 0.02 0.02 0.01 0.01 0.01 0.01 0.01 0.01 0.01 0.01 0.02 0.02 0.02 0.02 0.02 0.03 0.03 0.02 0.02 0.01
0.01 0.01 0.01 0.01 0.01 0.01 0.01 0.01 0.01 0.01 0.01 0.01 0.01 0.01 0.02 0.02 0.03 0.03 0.02 0.02 0.02 0.01 0.01 0.02 0.02 0.02 0.01 0.01 0.01 0.02 0.02 0.02 0.01 0.02 0.02 0.02 0.03 0.03 0.03 0.03 0.03 0.02 0.02
0.01 0.01 0.01 0.01 0.01 0.01 0.01 0.01 0.01 0.01 0.01 0.01 0.01 0.01 0.02 0.02 0.02 0.02 0.02 0.02 0.02 0.02 0.02 0.02 0.02 0.02 0.01 0.01 0.01 0.01 0.01 0.01 0.01 0.01 0.01 0.02 0.02 0.03 0.03 0.03 0.03 0.02 0.02
0.01 0.01 0.01 0.01 0.01 0.01 0.01 0.01 0.01 0.01 0.01 0.01 0.01 0.01 0.02 0.02 0.02 0.02 0.01 0.01 0.01 0.01 0.01 0.01 0.01 0.01 0.01 0.01 0.01 0.01 0.01 0.01 0.01 0.01 0.01 0.01 0.02 0.02 0.03 0.03 0.03 0.03 0.02
0.01 0.01 0.01 0.02 0.02 0.02 0.01 0.01 0.01 0.01 0.01 0.01 0.01 0.01 0.02 0.02 0.02 0.02 0.01 0.01 0.01 0.01 0.01 0.01 0.01 0.01 0.01 0.01 0.01 0.01 0.01 0.01 0.01 0.01 0.01 0.01 0.01 0.02 0.03 0.03 0.03 0.03 0.03
MSLP
1007.92 1008.92 1009.87 1010.75 1011.54 1012.23 1012.86 1013.44 1014.01 1014.57 1015.15 1015.74 1016.32 1016.89 1017.41 1017.87 1018.28 1018.63 1018.93 1019.22 1019.50 1019.81 1020.13 1020.48 1020.84 1021.20 1021.52 1021.80 1022.01 1022.14 1022.17 1022.10 1021.92 1021.65 1021.27 1020.79 1020.22 1019.58 1018.87 1018.12 1017.34 1016.58 1015.83
1007.45 1008.45 1009.41 1010.29 1011.09 1011.78 1012.41 1012.98 1013.54 1014.10 1014.68 1015.28 1015.88 1016.46 1017.01 1017.51 1017.95 1018.32 1018.65 1018.93 1019.20 1019.48 1019.76 1020.07 1020.39 1020.71 1021.01 1021.28 1021.51 1021.66 1021.74 1021.72 1021.61 1021.39 1021.06 1020.61 1020.06 1019.42 1018.70 1017.92 1017.12 1016.31 1015.53
1006.97 1007.95 1008.90 1009.78 1010.58 1011.28 1011.92 1012.50 1013.06 1013.63 1014.22 1014.82 1015.43 1016.02 1016.59 1017.10 1017.55 1017.94 1018.27 1018.56 1018.83 1019.08 1019.34 1019.62 1019.90 1020.19 1020.48 1020.75 1020.97 1021.15 1021.26 1021.29 1021.22 1021.06 1020.77 1020.37 1019.85 1019.23 1018.51 1017.73 1016.91 1016.08 1015.26
1006.53 1007.45 1008.37 1009.24 1010.04 1010.76 1011.41 1012.01 1012.59 1013.17 1013.77 1014.37 1014.98 1015.58 1016.14 1016.65 1017.10 1017.49 1017.82 1018.11 1018.37 1018.63 1018.88 1019.14 1019.42 1019.69 1019.97 1020.23 1020.46 1020.65 1020.78 1020.83 1020.80 1020.67 1020.43 1020.07 1019.59 1019.00 1018.31 1017.55 1016.72 1015.88 1015.03
1006.18 1007.03 1007.89 1008.73 1009.52 1010.24 1010.91 1011.55 1012.16 1012.76 1013.37 1013.98 1014.58 1015.16 1015.70 1016.19 1016.63 1017.01 1017.34 1017.63 1017.89 1018.16 1018.42 1018.69 1018.97 1019.25 1019.53 1019.78 1020.01 1020.19 1020.32 1020.39 1020.37 1020.26 1020.05 1019.73 1019.30 1018.75 1018.10 1017.37 1016.57 1015.73 1014.87
1005.98 1006.73 1007.52 1008.31 1009.08 1009.81 1010.50 1011.16 1011.81 1012.44 1013.07 1013.68 1014.27 1014.83 1015.34 1015.80 1016.20 1016.56 1016.88 1017.17 1017.45 1017.73 1018.02 1018.31 1018.61 1018.91 1019.19 1019.44 1019.66 1019.83 1019.94 1019.99 1019.97 1019.87 1019.68 1019.39 1018.99 1018.50 1017.90 1017.22 1016.46 1015.64 1014.79
1005.97 1006.61 1007.32 1008.05 1008.79 1009.52 1010.23 1010.93 1011.61 1012.28 1012.92 1013.54 1014.11 1014.64 1015.11 1015.53 1015.90 1016.23 1016.54 1016.83 1017.12 1017.43 1017.75 1018.07 1018.40 1018.71 1018.99 1019.24 1019.43 1019.57 1019.65 1019.67 1019.63 1019.51 1019.32 1019.05 1018.70 1018.26 1017.72 1017.10 1016.40 1015.62 1014.80
1006.19 1006.73 1007.35 1008.02 1008.73 1009.46 1010.18 1010.91 1011.62 1012.32 1012.98 1013.59 1014.16 1014.66 1015.10 1015.48 1015.81 1016.11 1016.40 1016.69 1016.99 1017.32 1017.66 1018.01 1018.35 1018.67 1018.95 1019.18 1019.34 1019.44 1019.47 1019.44 1019.35 1019.21 1019.01 1018.75 1018.43 1018.03 1017.56 1017.00 1016.37 1015.66 1014.88
1006.65 1007.10 1007.64 1008.26 1008.94 1009.65 1010.39 1011.14 1011.88 1012.59 1013.27 1013.89 1014.44 1014.92 1015.32 1015.67 1015.97 1016.24 1016.51 1016.80 1017.10 1017.44 1017.79 1018.15 1018.49 1018.80 1019.06 1019.25 1019.36 1019.40 1019.37 1019.29 1019.15 1018.97 1018.75 1018.49 1018.18 1017.83 1017.41 1016.92 1016.35 1015.70 1014.98
1007.34 1007.72 1008.20 1008.77 1009.42 1010.12 1010.86 1011.63 1012.38 1013.12 1013.80 1014.42 1014.96 1015.41 1015.79 1016.11 1016.38 1016.63 1016.89 1017.16 1017.46 1017.78 1018.13 1018.47 1018.79 1019.07 1019.29 1019.42 1019.47 1019.45 1019.35 1019.20 1019.00 1018.77 1018.52 1018.25 1017.95 1017.62 1017.24 1016.80 1016.29 1015.71 1015.04
1008.23 1008.56 1009.00 1009.54 1010.16 1010.85 1011.59 1012.35 1013.12 1013.85 1014.53 1015.14 1015.67 1016.11 1016.46 1016.76 1017.01 1017.24 1017.48 1017.73 1018.01 1018.31 1018.63 1018.93 1019.21 1019.44 1019.59 1019.66 1019.64 1019.54 1019.37 1019.16 1018.90 1018.63 1018.34 1018.04 1017.74 1017.41 1017.05 1016.64 1016.17 1015.63 1015.01
1009.29 1009.59 1010.01 1010.52 1011.12 1011.80 1012.52 1013.27 1014.02 1014.75 1015.41 1016.00 1016.51 1016.93 1017.26 1017.54 1017.78 1017.99 1018.21 1018.44 1018.69 1018.95 1019.22 1019.47 1019.69 1019.84 1019.92 1019.92 1019.83 1019.66 1019.43 1019.15 1018.84 1018.52 1018.20 1017.87 1017.54 1017.19 1016.82 1016.41 1015.95 1015.43 1014.83
1010.48 1010.77 1011.16 1011.66 1012.24 1012.90 1013.60 1014.33 1015.05 1015.74 1016.37 1016.93 1017.40 1017.80 1018.11 1018.37 1018.59 1018.79 1018.99 1019.20 1019.41 1019.63 1019.84 1020.03 1020.17 1020.24 1020.25 1020.17 1020.01 1019.78 1019.50 1019.18 1018.83 1018.47 1018.10 1017.74 1017.37 1016.98 1016.58 1016.14 1015.65 1015.11 1014.52
1011.74 1012.03 1012.42 1012.90 1013.47 1014.10 1014.77 1015.45 1016.12 1016.76 1017.34 1017.85 1018.29 1018.64 1018.94 1019.18 1019.38 1019.57 1019.75 1019.93 1020.10 1020.27 1020.42 1020.54 1020.61 1020.61 1020.54 1020.40 1020.19 1019.92 1019.60 1019.24 1018.86 1018.47 1018.07 1017.66 1017.24 1016.80 1016.34 1015.84 1015.30 1014.72 1014.09
1013.03 1013.32 1013.71 1014.18 1014.73 1015.32 1015.95 1016.58 1017.19 1017.76 1018.28 1018.73 1019.11 1019.42 1019.69 1019.90 1020.09 1020.26 1020.43 1020.58 1020.72 1020.84 1020.94 1020.99 1020.99 1020.93 1020.80 1020.61 1020.36 1020.06 1019.72 1019.35 1018.95 1018.54 1018.10 1017.65 1017.17 1016.67 1016.12 1015.55 1014.93 1014.28 1013.59
1014.28 1014.58 1014.97 1015.44 1015.96 1016.53 1017.11 1017.68 1018.22 1018.71 1019.15 1019.53 1019.85 1020.12 1020.35 1020.54 1020.71 1020.87 1021.01 1021.14 1021.25 1021.33 1021.38 1021.38 1021.32 1021.21 1021.04 1020.81 1020.54 1020.23 1019.88 1019.50 1019.10 1018.66 1018.20 1017.70 1017.16 1016.58 1015.95 1015.28 1014.58 1013.84 1013.08
1015.47 1015.78 1016.17 1016.63 1017.14 1017.67 1018.20 1018.71 1019.18 1019.60 1019.96 1020.27 1020.53 1020.75 1020.94 1021.11 1021.27 1021.41 1021.53 1021.64 1021.73 1021.77 1021.78 1021.73 1021.63 1021.48 1021.27 1021.02 1020.73 1020.41 1020.06 1019.68 1019.26 1018.81 1018.32 1017.77 1017.17 1016.52 1015.81 1015.05 1014.25 1013.43 1012.60
1016.56 1016.88 1017.27 1017.73 1018.22 1018.72 1019.21 1019.67 1020.08 1020.43 1020.73 1020.98 1021.19 1021.36 1021.52 1021.67 1021.80 1021.93 1022.04 1022.13 1022.19 1022.20 1022.17 1022.08 1021.94 1021.75 1021.51 1021.23 1020.93 1020.59 1020.23 1019.84 1019.41 1018.93 1018.41 1017.81 1017.15 1016.43 1015.64 1014.80 1013.92 1013.02 1012.12
1017.55 1017.88 1018.28 1018.73 1019.21 1019.69 1020.14 1020.56 1020.92 1021.22 1021.47 1021.68 1021.84 1021.99 1022.12 1022.25 1022.37 1022.48 1022.58 1022.65 1022.68 1022.65 1022.58 1022.45 1022.26 1022.02 1021.74 1021.43 1021.09 1020.73 1020.34 1019.92 1019.47 1018.96 1018.39 1017.75 1017.03 1016.24 1015.38 1014.48 1013.53 1012.57 1011.61
1018.45 1018.78 1019.18 1019.63 1020.10 1020.57 1021.00 1021.39 1021.72 1021.99 1022.21 1022.39 1022.53 1022.66 1022.78 1022.89 1023.00 1023.09 1023.17 1023.21 1023.20 1023.14 1023.01 1022.83 1022.58 1022.29 1021.95 1021.58 1021.20 1020.78 1020.35 1019.89 1019.38 1018.83 1018.21 1017.51 1016.74 1015.89 1014.98 1014.02 1013.03 1012.03 1011.03
1019.27 1019.61 1020.01 1020.46 1020.93 1021.38 1021.80 1022.18 1022.49 1022.75 1022.96 1023.12 1023.25 1023.37 1023.48 1023.59 1023.68 1023.76 1023.80 1023.80 1023.75 1023.63 1023.44 1023.19 1022.87 1022.50 1022.09 1021.65 1021.19 1020.71 1020.21 1019.68 1019.12 1018.50 1017.82 1017.07 1016.25 1015.36 1014.41 1013.41 1012.39 1011.36 1010.35
1020.05 1020.39 1020.79 1021.24 1021.70 1022.15 1022.56 1022.93 1023.24 1023.49 1023.69 1023.86 1023.99 1024.11 1024.22 1024.31 1024.39 1024.44 1024.45 1024.40 1024.29 1024.10 1023.83 1023.50 1023.09 1022.63 1022.13 1021.61 1021.06 1020.49 1019.91 1019.30 1018.67 1017.98 1017.24 1016.44 1015.57 1014.65 1013.67 1012.66 1011.63 1010.60 1009.58
1020.82 1021.15 1021.55 1021.99 1022.44 1022.88 1023.28 1023.64 1023.95 1024.20 1024.41 1024.57 1024.71 1024.83 1024.93 1025.01 1025.06 1025.08 1025.04 1024.94 1024.75 1024.49 1024.14 1023.70 1023.20 1022.65 1022.05 1021.43 1020.79 1020.13 1019.47 1018.79 1018.08 1017.33 1016.54 1015.69 1014.79 1013.85 1012.86 1011.85 1010.83 1009.81 1008.81
1021.59 1021.92 1022.31 1022.73 1023.17 1023.59 1023.98 1024.33 1024.62 1024.87 1025.07 1025.24 1025.37 1025.49 1025.57 1025.64 1025.66 1025.63 1025.54 1025.37 1025.11 1024.76 1024.32 1023.79 1023.20 1022.55 1021.86 1021.15 1020.42 1019.69 1018.95 1018.20 1017.44 1016.64 1015.81 1014.94 1014.03 1013.08 1012.10 1011.10 1010.11 1009.12 1008.15
1022.38 1022.71 1023.08 1023.49 1023.90 1024.29 1024.66 1024.98 1025.26 1025.48 1025.67 1025.83 1025.95 1026.05 1026.12 1026.15 1026.13 1026.05 1025.90 1025.66 1025.33 1024.90 1024.37 1023.77 1023.09 1022.36 1021.60 1020.82 1020.03 1019.24 1018.45 1017.66 1016.86 1016.05 1015.20 1014.33 1013.42 1012.49 1011.53 1010.57 1009.61 1008.66 1007.74
1023.20 1023.51 1023.87 1024.25 1024.63 1024.98 1025.31 1025.60 1025.84 1026.04 1026.20 1026.33 1026.43 1026.50 1026.54 1026.53 1026.47 1026.34 1026.13 1025.83 1025.43 1024.93 1024.34 1023.66 1022.93 1022.14 1021.33 1020.51 1019.69 1018.87 1018.07 1017.26 1016.46 1015.64 1014.81 1013.96 1013.08 1012.18 1011.27 1010.36 1009.45 1008.56 1007.69
Thickness
5531 5534 5536 5538 5541 5543 5545 5546 5548 5549 5550 5551 5553 5553 5554 5554 5555 5554 5553 5552 5551 5549 5548 5547 5546 5544 5541 5538 5536 5533 5530 5527 5524 5523 5521 5520 5518 5517 5516 5514 5513 5513 5512
5521 5524 5526 5528 5530 5532 5534 5536 5538 5539 5540 5541 5543 5544 5545 5546 5546 5546 5546 5545 5544 5542 5541 5540 5539 5537 5535 5532 5529 5527 5524 5521 5517 5516 5514 5513 5511 5510 5509 5507 5506 5505 5504
5510 5513 5515 5517 5520 5522 5524 5525 5527 5529 5530 5531 5532 5534 5535 5536 5537 5538 5538 5537 5536 5535 5534 5533 5531 5530 5528 5526 5524 5521 5518 5515 5511 5509 5507 5505 5504 5503 5501 5500 5498 5498 5497
5500 5502 5505 5507 5509 5511 5513 5515 5516 5518 5520 5521 5523 5524 5525 5527 5528 5529 5529 5529 5528 5528 5527 5526 5525 5524 5523 5521 5518 5516 5512 5509 5505 5502 5501 5499 5497 5495 5494 5492 5492 5491 5489
5490 5492 5494 5497 5499 5501 5503 5504 5506 5508 5510 5511 5513 5514 5516 5517 5519 5520 5520 5521 5520 5520 5519 5519 5519 5518 5517 5515 5513 5510 5506 5502 5498 5496 5494 5493 5490 5488 5487 5485 5484 5483 5482
5480 5482 5484 5486 5488 5490 5492 5494 5495 5497 5499 5500 5502 5504 5506 5508 5511 5512 5512 5512 5512 5512 5512 5512 5511 5511 5510 5508 5506 5504 5501 5497 5493 5491 5488 5487 5485 5482 5480 5478 5476 5475 5475
5469 5472 5474 5476 5478 5479 5481 5483 5484 5486 5488 5490 5492 5494 5496 5499 5502 5503 5503 5503 5504 5504 5503 5503 5504 5503 5501 5500 5498 5496 5494 5492 5490 5487 5484 5482 5480 5478 5475 5473 5471 5468 5466
5459 5461 5463 5466 5467 5469 5471 5472 5474 5476 5477 5480 5482 5484 5486 5489 5492 5494 5495 5494 5495 5495 5496 5495 5495 5495 5494 5493 5491 5488 5487 5485 5484 5482 5480 5479 5476 5474 5471 5469 5466 5463 5461
5449 5451 5453 5455 5457 5459 5461 5462 5464 5465 5467 5470 5472 5474 5476 5479 5482 5484 5485 5485 5486 5487 5488 5487 5487 5487 5488 5486 5484 5482 5480 5479 5477 5475 5474 5472 5470 5468 5466 5463 5460 5459 5457
5439 5441 5443 5445 5447 5449 5451 5453 5454 5456 5458 5460 5463 5464 5467 5469 5472 5474 5476 5477 5477 5479 5479 5479 5480 5480 5480 5479 5477 5475 5474 5473 5470 5468 5466 5465 5463 5461 5459 5457 5455 5453 5451
5429 5431 5433 5435 5437 5440 5441 5443 5444 5446 5448 5450 5453 5455 5457 5460 5463 5465 5467 5468 5469 5470 5471 5471 5472 5473 5472 5471 5470 5469 5468 5466 5464 5462 5459 5457 5455 5454 5453 5451 5449 5448 5446
5418 5421 5423 5425 5427 5430 5431 5433 5434 5436 5438 5440 5442 5444 5447 5450 5453 5456 5458 5460 5461 5462 5463 5464 5464 5465 5464 5464 5463 5462 5461 5459 5456 5454 5452 5450 5448 5446 5445 5444 5443 5442 5441
5407 5410 5413 5415 5417 5419 5421 5423 5424 5426 5427 5429 5431 5434 5437 5440 5443 5447 5449 5451 5452 5454 5455 5456 5456 5456 5455 5455 5455 5455 5453 5451 5450 5448 5446 5444 5441 5439 5438 5437 5437 5436 5436
5398 5400 5402 5404 5407 5409 5411 5413 5414 5416 5417 5420 5422 5424 5427 5430 5433 5437 5439 5441 5443 5445 5446 5447 5447 5447 5446 5447 5446 5446 5445 5444 5444 5442 5439 5437 5435 5433 5432 5432 5431 5430 5430
5388 5390 5392 5395 5397 5399 5401 5403 5405 5407 5409 5411 5413 5415 5417 5421 5425 5428 5430 5432 5434 5436 5436 5437 5437 5437 5437 5437 5437 5437 5437 5437 5436 5435 5433 5432 5430 5429 5427 5426 5425 5424 5423
5380 5381 5383 5385 5387 5389 5392 5394 5396 5398 5400 5403 5405 5407 5409 5413 5416 5419 5421 5424 5426 5427 5427 5427 5428 5429 5429 5429 5429 5429 5429 5429 5429 5428 5427 5426 5425 5423 5422 5421 5420 5419 5418
5371 5372 5374 5376 5378 5380 5382 5384 5386 5388 5390 5393 5395 5398 5400 5403 5406 5409 5412 5415 5417 5418 5418 5418 5419 5420 5420 5421 5421 5422 5422 5422 5422 5421 5421 5420 5419 5418 5417 5416 5415 5413 5413
5363 5364 5365 5367 5368 5370 5372 5373 5375 5377 5379 5382 5385 5388 5391 5394 5397 5400 5402 5405 5406 5408 5409 5410 5411 5412 5412 5413 5413 5414 5414 5415 5415 5415 5414 5414 5413 5413 5412 5411 5410 5409 5408
5354 5355 5357 5358 5360 5361 5363 5364 5366 5367 5369 5372 5374 5378 5381 5384 5387 5390 5392 5395 5397 5399 5400 5401 5403 5404 5405 5405 5406 5407 5407 5408 5408 5408 5408 5408 5408 5408 5407 5406 5405 5405 5403
5345 5347 5349 5350 5352 5353 5354 5355 5357 5358 5360 5362 5365 5367 5371 5373 5376 5379 5382 5384 5387 5389 5391 5393 5394 5396 5397 5398 5399 5400 5400 5401 5402 5402 5402 5402 5402 5402 5402 5401 5400 5399 5398
5336 5338 5341 5342 5343 5345 5346 5347 5348 5350 5351 5354 5356 5359 5362 5364 5366 5369 5372 5375 5377 5380 5382 5384 5386 5388 5390 5391 5392 5393 5394 5395 5396 5396 5396 5396 5396 5396 5396 5396 5395 5395 5394
5327 5329 5331 5333 5335 5336 5338 5339 5341 5342 5344 5345 5347 5349 5353 5354 5357 5360 5363 5366 5369 5371 5373 5376 5378 5380 5383 5384 5386 5387 5388 5389 5390 5391 5391 5391 5391 5391 5391 5391 5391 5390 5389
5318 5320 5322 5324 5326 5329 5330 5331 5333 5335 5336 5338 5340 5341 5343 5346 5348 5351 5354 5357 5360 5363 5365 5368 5370 5373 5375 5377 5379 5381 5382 5384 5385 5386 5387 5386 5386 5386 5386 5386 5386 5386 5385
5309 5311 5313 5316 5318 5320 5321 5323 5325 5327 5329 5331 5332 5334 5336 5338 5340 5343 5346 5349 5351 5354 5358 5360 5363 5366 5368 5371 5373 5375 5377 5379 5380 5382 5382 5382 5382 5382 5382 5382 5383 5382 5382
5301 5303 5305 5307 5310 5312 5314 5316 5318 5320 5322 5324 5326 5328 5329 5331 5333 5335 5338 5341 5344 5347 5350 5353 5356 5359 5362 5365 5368 5370 5372 5374 5376 5377 5377 5377 5377 5377 5378 5378 5378 5378 5378
5293 5295 5298 5300 5302 5304 5307 5309 5311 5313 5315 5317 5319 5321 5322 5324 5326 5328 5331 5334 5337 5340 5343 5347 5350 5354 5357 5360 5363 5365 5367 5369 5371 5372 5373 5373 5373 5373 5374 5374 5374 5374 5373